Location: Unspecified
(47.2333°N, 39.7000°E)
Time: 22:15:21
(UTC+00:00)

ISS - Pass Details

Date: 08 July 2022
Orbit: 412 x 420 km, 51.6° (Epoch: 17 August)

Event Time Altitude Azimuth Distance (km) Brightness Sun altitude
Exits shadow 22:08:45 26° 278° (W) 865 -2.2 -19.7°
Maximum altitude 22:10:22 52° 344° (NNW) 528 -3.0 -19.7°
Drops below altitude 10° 22:13:40 10° 62° (ENE) 1,502 -0.4 -19.6°
Sets 22:15:42 0° 67° (ENE) 2,323 0.5 -19.5°
